Hourly Data Report for April 20, 2020

TORONTO CITY
ONTARIO
Current Station Operator: ECCC - MSC

43°40'00.000" N
79°24'00.000" W
112.50 m
6158355
71508
XTO

Download Data

Hourly Data (April 2020)
Hourly Data Report for April 20, 2020
TIME
LST
Temp Definition
°C
Dew Point Definition
°C
Rel Hum Definition
%
Precip. Amount Definition
mm

Wind Dir Definition
10's deg

Wind Spd Definition
km/h
Visibility Definition
km
Stn Press Definition
kPa
Hmdx Definition


Wind Chill Definition


Weather Definition


00:00 0.9 -7.1 55 0.0       99.72     LegendNANA
01:00 0.4 -7.2 57 0.0       99.67     LegendNANA
02:00 -0.3 -7.3 59 0.0       99.69     LegendNANA
03:00 -0.5 -7.2 60 0.0       99.68     LegendNANA
04:00 -0.1 -7.4 58 0.0       99.67     LegendNANA
05:00 -0.4 -7.2 60 0.0       99.65     LegendNANA
06:00 0.1 -6.6 61 0.0       99.61     LegendNANA
07:00 1.5 -5.4 60 0.0       99.59     LegendNANA
08:00 2.6 -3.4 65 0.0       99.59     LegendNANA
09:00 3.0 -3.3 63 0.0       99.56     LegendNANA
10:00 4.0 -4.4 54 0.0       99.53     LegendNANA
11:00 4.6 -4.0 53 0.0       99.54     LegendNANA
12:00 4.1 -4.2 55 0.0       99.47     LegendNANA
13:00 5.7 -6.9 40 0.0       99.38     LegendNANA
14:00 5.3 -5.2 46 0.2       99.30     LegendNANA
15:00 5.4 -5.0 47 0.2       99.20     LegendNANA
16:00 4.9 -4.0 53 0.4       99.13     LegendNANA
17:00 4.7 -3.6 55 0.0       99.09     LegendNANA
18:00 4.1 -3.0 60 0.0       99.02     LegendNANA
19:00 3.8 -1.7 67 0.0       98.98     LegendNANA
20:00 5.3 -1.0 64 0.0       98.94     LegendNANA
21:00 5.7 -2.3 56 0.0       98.85     LegendNANA
22:00 5.2 -2.1 59 0.0       98.76     LegendNANA
23:00 4.3 -1.7 65 0.0       98.60     LegendNANA

Notes on Data Quality.

Legend

  • E = Estimated
  • M = Missing
  • NA = Not Available*
  • [empty] = Indicates an unobserved value
Date modified: